Погода во Вроцлаве

Польша     51°06′40″N   17°02′18″E
темп.,
°C
ветер,
м/с
пор.,
м/с
влажн.,
%
обл.,
%
осадки,
мм/ч
давл.,
гПа
погр.,
м
3 марта, ср
ср301:00+5вюв12810 0.0 103322
04:00+4ююв22830 0.0 103222
07:00+3ююз11740 0.0 103122
10:00+9ююз11530 0.0 1030236
13:00+13юз13418 0.0 1028630
16:00+13з35506 0.0 1025270
19:00+8зюз34693 0.0 102584
22:00+7юз347263 0.0 102382
4 марта, чт
чт401:00+6зюз347376 0.0 102199
04:00+6з387969 0.0 1019156
07:00+5з4119079 0.0 1018385
10:00+10зсз611642 0.0 1017888
13:00+12зсз7115618 0.0 10151400
16:00+9сз61176100 0.4 1013653
19:00+7ссз5781100 0.4 1013592
22:00+3с4792100 1.2 1014506
5 марта, пт
пт501:00+3ссз4691100 1.9 1015439
04:000ссв6891100 0.4 1016416
07:000ссв4786100 0.6 1019631
10:00+2ссв456794 0.1 10211066
13:00+3с455389 0.1 10221569
16:00+3ссз564892 0.1 10221842
19:00+1зсз376477 0.1 1025203
22:00−1ссз386939 0.1 1028280
6 марта, сб
сб601:00−2сз487239 0.1 1030422
04:00−2сз487527 0.0 1031460
07:00−2сз367613 0.0 1032376
10:00+1зсз34490 0.0 1033918
13:00+4зсз454018 0.0 10331746
16:00+3з464222 0.0 10311501
19:000зюз365711 0.0 1031100
22:00−1зюз35590 0.0 1031128
7 марта, вс
вс701:00−1юз37570 0.0 1029147
04:00−1юз38570 0.0 1026183
07:00−1зюз38560 0.0 1025236
10:00+4з693920 0.0 1024994
13:00+6з683837 0.0 10211288
16:00+6зсз594679 0.0 10191087
19:00+1зсз4116074 0.0 1018260
22:00−1зсз487540 0.0 1019204